owner,sensor,date,latitude,longitude,vertical_datum,wind_speed,wind_to_direction,wind_speed_of_gust,qcFlag 
WAVCIS,ioos:station:WAVCIS:CSI03:3,2015-10-01T00:00:00Z,29.4412,-92.0613,10.0,6.331,12.0,,'11111222,11111222,99999999' 
WAVCIS,ioos:station:WAVCIS:CSI03:3,2015-10-01T01:00:00Z,29.4412,-92.0613,10.0,4.613,6.0,,'11111222,11111222,99999999' 
WAVCIS,ioos:station:WAVCIS:CSI03:3,2015-10-01T02:00:00Z,29.4412,-92.0613,10.0,5.359,23.0,,'11111222,11111222,99999999' 
WAVCIS,ioos:station:WAVCIS:CSI03:3,2015-10-01T03:00:00Z,29.4412,-92.0613,10.0,6.626,39.0,,'11111222,11111222,99999999' 
WAVCIS,ioos:station:WAVCIS:CSI03:3,2015-10-01T04:00:00Z,29.4412,-92.0613,10.0,6.388,27.0,,'11111222,11111222,99999999' 
WAVCIS,ioos:station:WAVCIS:CSI03:3,2015-10-01T05:00:00Z,29.4412,-92.0613,10.0,7.47,24.0,,'11111222,11111222,99999999' 
WAVCIS,ioos:station:WAVCIS:CSI03:3,2015-10-01T06:00:00Z,29.4412,-92.0613,10.0,7.64,34.0,,'11111222,11111222,99999999' 
WAVCIS,ioos:station:WAVCIS:CSI03:3,2015-10-01T07:00:00Z,29.4412,-92.0613,10.0,7.76,30.0,,'11111222,11111222,99999999' 
WAVCIS,ioos:station:WAVCIS:CSI03:3,2015-10-01T08:00:00Z,29.4412,-92.0613,10.0,7.51,33.0,,'11111222,11111222,99999999' 
WAVCIS,ioos:station:WAVCIS:CSI03:3,2015-10-01T09:00:00Z,29.4412,-92.0613,10.0,7.25,35.0,,'11111222,11111222,99999999' 
WAVCIS,ioos:station:WAVCIS:CSI03:3,2015-10-01T10:00:00Z,29.4412,-92.0613,10.0,7.86,38.0,,'11111222,11111222,99999999' 
WAVCIS,ioos:station:WAVCIS:CSI03:3,2015-10-01T11:00:00Z,29.4412,-92.0613,10.0,7.23,35.0,,'11111222,11111222,99999999' 
WAVCIS,ioos:station:WAVCIS:CSI03:3,2015-10-01T12:00:00Z,29.4412,-92.0613,10.0,7.81,35.0,,'11111222,11111222,99999999' 
WAVCIS,ioos:station:WAVCIS:CSI03:3,2015-10-01T13:00:00Z,29.4412,-92.0613,10.0,6.712,29.0,,'11111222,11111222,99999999' 
WAVCIS,ioos:station:WAVCIS:CSI03:3,2015-10-01T14:00:00Z,29.4412,-92.0613,10.0,6.396,30.0,,'11111222,11111222,99999999' 
WAVCIS,ioos:station:WAVCIS:CSI03:3,2015-10-01T15:00:00Z,29.4412,-92.0613,10.0,5.97,28.0,,'11111222,11111222,99999999' 
WAVCIS,ioos:station:WAVCIS:CSI03:3,2015-10-01T16:00:00Z,29.4412,-92.0613,10.0,5.891,24.0,,'11111222,11111222,99999999' 
WAVCIS,ioos:station:WAVCIS:CSI03:3,2015-10-01T17:00:00Z,29.4412,-92.0613,10.0,5.263,23.0,,'11111222,11111222,99999999' 
WAVCIS,ioos:station:WAVCIS:CSI03:3,2015-10-01T18:00:00Z,29.4412,-92.0613,10.0,4.866,20.0,,'11111222,11111222,99999999' 
WAVCIS,ioos:station:WAVCIS:CSI03:3,2015-10-01T19:00:00Z,29.4412,-92.0613,10.0,5.74,358.0,,'11111222,11111222,99999999' 
WAVCIS,ioos:station:WAVCIS:CSI03:3,2015-10-01T20:00:00Z,29.4412,-92.0613,10.0,6.831,8.0,,'11111222,11111222,99999999' 
WAVCIS,ioos:station:WAVCIS:CSI03:3,2015-10-01T21:00:00Z,29.4412,-92.0613,10.0,6.528,1.0,,'11111222,11111222,99999999' 
WAVCIS,ioos:station:WAVCIS:CSI03:3,2015-10-01T22:00:00Z,29.4412,-92.0613,10.0,7.74,6.0,,'11111222,11111222,99999999' 
WAVCIS,ioos:station:WAVCIS:CSI03:3,2015-10-01T23:00:00Z,29.4412,-92.0613,10.0,7.4,9.0,,'11111222,11111222,99999999' 
WAVCIS,ioos:station:WAVCIS:CSI03:3,2015-10-02T00:00:00Z,29.4412,-92.0613,10.0,6.791,22.0,,'11111222,11111222,99999999' 
WAVCIS,ioos:station:WAVCIS:CSI03:3,2015-10-02T01:00:00Z,29.4412,-92.0613,10.0,6.558,19.0,,'11111222,11111222,99999999' 
WAVCIS,ioos:station:WAVCIS:CSI03:3,2015-10-02T02:00:00Z,29.4412,-92.0613,10.0,6.514,19.0,,'11111222,11111222,99999999' 
WAVCIS,ioos:station:WAVCIS:CSI03:3,2015-10-02T03:00:00Z,29.4412,-92.0613,10.0,6.432,27.0,,'11111222,11111222,99999999' 
WAVCIS,ioos:station:WAVCIS:CSI03:3,2015-10-02T04:00:00Z,29.4412,-92.0613,10.0,7.02,17.0,,'11111222,11111222,99999999' 
WAVCIS,ioos:station:WAVCIS:CSI03:3,2015-10-02T05:00:00Z,29.4412,-92.0613,10.0,8.07,35.0,,'11111222,11111222,99999999' 
WAVCIS,ioos:station:WAVCIS:CSI03:3,2015-10-02T06:00:00Z,29.4412,-92.0613,10.0,8.77,33.0,,'11111222,11111222,99999999' 
WAVCIS,ioos:station:WAVCIS:CSI03:3,2015-10-02T07:00:00Z,29.4412,-92.0613,10.0,9.37,31.0,,'11111222,11111222,99999999' 
WAVCIS,ioos:station:WAVCIS:CSI03:3,2015-10-02T08:00:00Z,29.4412,-92.0613,10.0,9.17,31.0,,'11111222,11111222,99999999' 
WAVCIS,ioos:station:WAVCIS:CSI03:3,2015-10-02T09:00:00Z,29.4412,-92.0613,10.0,8.6,29.0,,'11111222,11111222,99999999' 
WAVCIS,ioos:station:WAVCIS:CSI03:3,2015-10-02T10:00:00Z,29.4412,-92.0613,10.0,8.15,24.0,,'11111222,11111222,99999999' 
WAVCIS,ioos:station:WAVCIS:CSI03:3,2015-10-02T11:00:00Z,29.4412,-92.0613,10.0,8.07,25.0,,'11111222,11111222,99999999' 
WAVCIS,ioos:station:WAVCIS:CSI03:3,2015-10-02T12:00:00Z,29.4412,-92.0613,10.0,8.71,13.0,,'11111222,11111222,99999999' 
WAVCIS,ioos:station:WAVCIS:CSI03:3,2015-10-02T13:00:00Z,29.4412,-92.0613,10.0,8.08,24.0,,'11111222,11111222,99999999' 
WAVCIS,ioos:station:WAVCIS:CSI03:3,2015-10-02T14:00:00Z,29.4412,-92.0613,10.0,7.67,20.0,,'11111222,11111222,99999999' 
WAVCIS,ioos:station:WAVCIS:CSI03:3,2015-10-02T15:00:00Z,29.4412,-92.0613,10.0,7.55,27.0,,'11111222,11111222,99999999' 
WAVCIS,ioos:station:WAVCIS:CSI03:3,2015-10-02T16:00:00Z,29.4412,-92.0613,10.0,7.43,12.0,,'11111222,11111222,99999999' 
WAVCIS,ioos:station:WAVCIS:CSI03:3,2015-10-02T17:00:00Z,29.4412,-92.0613,10.0,6.602,0.0,,'11111222,11111222,99999999' 
WAVCIS,ioos:station:WAVCIS:CSI03:3,2015-10-02T18:00:00Z,29.4412,-92.0613,10.0,6.635,352.0,,'11111222,11111222,99999999' 
WAVCIS,ioos:station:WAVCIS:CSI03:3,2015-10-02T19:00:00Z,29.4412,-92.0613,10.0,6.871,354.0,,'11111222,11111222,99999999' 
WAVCIS,ioos:station:WAVCIS:CSI03:3,2015-10-02T20:00:00Z,29.4412,-92.0613,10.0,6.733,0.0,,'11111222,11111222,99999999' 
WAVCIS,ioos:station:WAVCIS:CSI03:3,2015-10-02T21:00:00Z,29.4412,-92.0613,10.0,7.32,5.0,,'11111222,11111222,99999999' 
WAVCIS,ioos:station:WAVCIS:CSI03:3,2015-10-02T22:00:00Z,29.4412,-92.0613,10.0,7.3,3.0,,'11111222,11111222,99999999' 
WAVCIS,ioos:station:WAVCIS:CSI03:3,2015-10-02T23:00:00Z,29.4412,-92.0613,10.0,6.376,8.0,,'11111222,11111222,99999999' 
WAVCIS,ioos:station:WAVCIS:CSI03:3,2015-10-03T00:00:00Z,29.4412,-92.0613,10.0,7.57,22.0,,'11111222,11111222,99999999' 
WAVCIS,ioos:station:WAVCIS:CSI03:3,2015-10-03T01:00:00Z,29.4412,-92.0613,10.0,7.34,30.0,,'11111222,11111222,99999999' 
WAVCIS,ioos:station:WAVCIS:CSI03:3,2015-10-03T02:00:00Z,29.4412,-92.0613,10.0,6.189,33.0,,'11111222,11111222,99999999' 
WAVCIS,ioos:station:WAVCIS:CSI03:3,2015-10-03T03:00:00Z,29.4412,-92.0613,10.0,6.221,32.0,,'11111222,11111222,99999999' 
WAVCIS,ioos:station:WAVCIS:CSI03:3,2015-10-03T04:00:00Z,29.4412,-92.0613,10.0,7.45,37.0,,'11111222,11111222,99999999' 
WAVCIS,ioos:station:WAVCIS:CSI03:3,2015-10-03T05:00:00Z,29.4412,-92.0613,10.0,8.58,44.0,,'11111222,11111222,99999999' 
WAVCIS,ioos:station:WAVCIS:CSI03:3,2015-10-03T06:00:00Z,29.4412,-92.0613,10.0,8.99,38.0,,'11111222,11111222,99999999' 
WAVCIS,ioos:station:WAVCIS:CSI03:3,2015-10-03T07:00:00Z,29.4412,-92.0613,10.0,8.73,45.0,,'11111222,11111222,99999999' 
WAVCIS,ioos:station:WAVCIS:CSI03:3,2015-10-03T08:00:00Z,29.4412,-92.0613,10.0,7.8,38.0,,'11111222,11111222,99999999' 
WAVCIS,ioos:station:WAVCIS:CSI03:3,2015-10-03T09:00:00Z,29.4412,-92.0613,10.0,7.93,43.0,,'11111222,11111222,99999999' 
WAVCIS,ioos:station:WAVCIS:CSI03:3,2015-10-03T10:00:00Z,29.4412,-92.0613,10.0,7.2,42.0,,'11111222,11111222,99999999' 
WAVCIS,ioos:station:WAVCIS:CSI03:3,2015-10-03T11:00:00Z,29.4412,-92.0613,10.0,6.736,36.0,,'11111222,11111222,99999999' 
WAVCIS,ioos:station:WAVCIS:CSI03:3,2015-10-03T12:00:00Z,29.4412,-92.0613,10.0,6.339,34.0,,'11111222,11111222,99999999' 
WAVCIS,ioos:station:WAVCIS:CSI03:3,2015-10-03T13:00:00Z,29.4412,-92.0613,10.0,6.327,35.0,,'11111222,11111222,99999999' 
WAVCIS,ioos:station:WAVCIS:CSI03:3,2015-10-03T14:00:00Z,29.4412,-92.0613,10.0,5.918,34.0,,'11111222,11111222,99999999' 
WAVCIS,ioos:station:WAVCIS:CSI03:3,2015-10-03T15:00:00Z,29.4412,-92.0613,10.0,5.734,18.0,,'11111222,11111222,99999999' 
WAVCIS,ioos:station:WAVCIS:CSI03:3,2015-10-03T16:00:00Z,29.4412,-92.0613,10.0,5.277,23.0,,'11111222,11111222,99999999' 
WAVCIS,ioos:station:WAVCIS:CSI03:3,2015-10-03T17:00:00Z,29.4412,-92.0613,10.0,4.998,18.0,,'11111222,11111222,99999999' 
WAVCIS,ioos:station:WAVCIS:CSI03:3,2015-10-03T18:00:00Z,29.4412,-92.0613,10.0,3.8,24.0,,'11111222,11111222,99999999' 
WAVCIS,ioos:station:WAVCIS:CSI03:3,2015-10-03T19:00:00Z,29.4412,-92.0613,10.0,2.913,34.0,,'11111222,11111222,99999999' 
WAVCIS,ioos:station:WAVCIS:CSI03:3,2015-10-03T20:00:00Z,29.4412,-92.0613,10.0,0.945,29.0,,'11111222,11111222,99999999' 
WAVCIS,ioos:station:WAVCIS:CSI03:3,2015-10-03T21:00:00Z,29.4412,-92.0613,10.0,3.585,14.0,,'11111222,11111222,99999999' 
WAVCIS,ioos:station:WAVCIS:CSI03:3,2015-10-03T22:00:00Z,29.4412,-92.0613,10.0,3.86,12.0,,'11111222,11111222,99999999' 
WAVCIS,ioos:station:WAVCIS:CSI03:3,2015-10-03T23:00:00Z,29.4412,-92.0613,10.0,4.552,25.0,,'11111222,11111222,99999999' 
WAVCIS,ioos:station:WAVCIS:CSI03:3,2015-10-04T00:00:00Z,29.4412,-92.0613,10.0,5.201,50.0,,'11111222,11111222,99999999' 
WAVCIS,ioos:station:WAVCIS:CSI03:3,2015-10-04T01:00:00Z,29.4412,-92.0613,10.0,5.921,59.0,,'11111222,11111222,99999999' 
WAVCIS,ioos:station:WAVCIS:CSI03:3,2015-10-04T02:00:00Z,29.4412,-92.0613,10.0,8.2,49.0,,'11111222,11111222,99999999' 
WAVCIS,ioos:station:WAVCIS:CSI03:3,2015-10-04T03:00:00Z,29.4412,-92.0613,10.0,9.38,50.0,,'11111222,11111222,99999999' 
WAVCIS,ioos:station:WAVCIS:CSI03:3,2015-10-04T04:00:00Z,29.4412,-92.0613,10.0,7.42,50.0,,'11111222,11111222,99999999' 
WAVCIS,ioos:station:WAVCIS:CSI03:3,2015-10-04T05:00:00Z,29.4412,-92.0613,10.0,8.33,50.0,,'11111222,11111222,99999999' 
WAVCIS,ioos:station:WAVCIS:CSI03:3,2015-10-04T06:00:00Z,29.4412,-92.0613,10.0,8.74,50.0,,'11111222,11111222,99999999' 
WAVCIS,ioos:station:WAVCIS:CSI03:3,2015-10-04T07:00:00Z,29.4412,-92.0613,10.0,8.62,49.0,,'11111222,11111222,99999999' 
WAVCIS,ioos:station:WAVCIS:CSI03:3,2015-10-04T08:00:00Z,29.4412,-92.0613,10.0,6.808,42.0,,'11111222,11111222,99999999' 
WAVCIS,ioos:station:WAVCIS:CSI03:3,2015-10-04T09:00:00Z,29.4412,-92.0613,10.0,5.518,31.0,,'11111222,11111222,99999999' 
WAVCIS,ioos:station:WAVCIS:CSI03:3,2015-10-04T10:00:00Z,29.4412,-92.0613,10.0,4.97,36.0,,'11111222,11111222,99999999' 
WAVCIS,ioos:station:WAVCIS:CSI03:3,2015-10-04T11:00:00Z,29.4412,-92.0613,10.0,5.215,31.0,,'11111222,11111222,99999999' 
WAVCIS,ioos:station:WAVCIS:CSI03:3,2015-10-04T12:00:00Z,29.4412,-92.0613,10.0,4.998,35.0,,'11111222,11111222,99999999' 
WAVCIS,ioos:station:WAVCIS:CSI03:3,2015-10-04T13:00:00Z,29.4412,-92.0613,10.0,4.413,8.0,,'11111222,11111222,99999999' 
WAVCIS,ioos:station:WAVCIS:CSI03:3,2015-10-04T14:00:00Z,29.4412,-92.0613,10.0,5.837,10.0,,'11111222,11111222,99999999' 
WAVCIS,ioos:station:WAVCIS:CSI03:3,2015-10-04T15:00:00Z,29.4412,-92.0613,10.0,5.276,8.0,,'11111222,11111222,99999999' 
WAVCIS,ioos:station:WAVCIS:CSI03:3,2015-10-04T16:00:00Z,29.4412,-92.0613,10.0,5.481,2.0,,'11111222,11111222,99999999' 
WAVCIS,ioos:station:WAVCIS:CSI03:3,2015-10-04T17:00:00Z,29.4412,-92.0613,10.0,4.91,353.0,,'11111222,11111222,99999999' 
WAVCIS,ioos:station:WAVCIS:CSI03:3,2015-10-04T18:00:00Z,29.4412,-92.0613,10.0,5.192,3.0,,'11111222,11111222,99999999' 
WAVCIS,ioos:station:WAVCIS:CSI03:3,2015-10-04T19:00:00Z,29.4412,-92.0613,10.0,4.725,5.0,,'11111222,11111222,99999999' 
WAVCIS,ioos:station:WAVCIS:CSI03:3,2015-10-04T20:00:00Z,29.4412,-92.0613,10.0,5.887,5.0,,'11111222,11111222,99999999' 
WAVCIS,ioos:station:WAVCIS:CSI03:3,2015-10-04T21:00:00Z,29.4412,-92.0613,10.0,5.544,6.0,,'11111222,11111222,99999999' 
WAVCIS,ioos:station:WAVCIS:CSI03:3,2015-10-04T22:00:00Z,29.4412,-92.0613,10.0,6.115,349.0,,'11111222,11111222,99999999' 
WAVCIS,ioos:station:WAVCIS:CSI03:3,2015-10-04T23:00:00Z,29.4412,-92.0613,10.0,6.325,357.0,,'11111222,11111222,99999999' 
WAVCIS,ioos:station:WAVCIS:CSI03:3,2015-10-05T00:00:00Z,29.4412,-92.0613,10.0,6.782,23.0,,'11111222,11111222,99999999' 
WAVCIS,ioos:station:WAVCIS:CSI03:3,2015-10-05T01:00:00Z,29.4412,-92.0613,10.0,5.873,35.0,,'11111222,11111222,99999999' 
WAVCIS,ioos:station:WAVCIS:CSI03:3,2015-10-05T02:00:00Z,29.4412,-92.0613,10.0,6.912,34.0,,'11111222,11111222,99999999' 
WAVCIS,ioos:station:WAVCIS:CSI03:3,2015-10-05T03:00:00Z,29.4412,-92.0613,10.0,6.807,33.0,,'11111222,11111222,99999999' 
WAVCIS,ioos:station:WAVCIS:CSI03:3,2015-10-05T04:00:00Z,29.4412,-92.0613,10.0,6.877,22.0,,'11111222,11111222,99999999' 
WAVCIS,ioos:station:WAVCIS:CSI03:3,2015-10-05T05:00:00Z,29.4412,-92.0613,10.0,6.903,32.0,,'11111222,11111222,99999999' 
WAVCIS,ioos:station:WAVCIS:CSI03:3,2015-10-05T06:00:00Z,29.4412,-92.0613,10.0,7.25,31.0,,'11111222,11111222,99999999' 
WAVCIS,ioos:station:WAVCIS:CSI03:3,2015-10-05T07:00:00Z,29.4412,-92.0613,10.0,6.855,40.0,,'11111222,11111222,99999999' 
WAVCIS,ioos:station:WAVCIS:CSI03:3,2015-10-05T08:00:00Z,29.4412,-92.0613,10.0,6.649,44.0,,'11111222,11111222,99999999' 
WAVCIS,ioos:station:WAVCIS:CSI03:3,2015-10-05T09:00:00Z,29.4412,-92.0613,10.0,5.252,40.0,,'11111222,11111222,99999999' 
WAVCIS,ioos:station:WAVCIS:CSI03:3,2015-10-05T10:00:00Z,29.4412,-92.0613,10.0,5.005,40.0,,'11111222,11111222,99999999' 
WAVCIS,ioos:station:WAVCIS:CSI03:3,2015-10-05T11:00:00Z,29.4412,-92.0613,10.0,4.041,30.0,,'11111222,11111222,99999999' 
WAVCIS,ioos:station:WAVCIS:CSI03:3,2015-10-05T12:00:00Z,29.4412,-92.0613,10.0,4.267,33.0,,'11111222,11111222,99999999' 
WAVCIS,ioos:station:WAVCIS:CSI03:3,2015-10-05T13:00:00Z,29.4412,-92.0613,10.0,4.811,26.0,,'11111222,11111222,99999999' 
WAVCIS,ioos:station:WAVCIS:CSI03:3,2015-10-05T14:00:00Z,29.4412,-92.0613,10.0,4.127,27.0,,'11111222,11111222,99999999' 
WAVCIS,ioos:station:WAVCIS:CSI03:3,2015-10-05T15:00:00Z,29.4412,-92.0613,10.0,3.599,20.0,,'11111222,11111222,99999999' 
WAVCIS,ioos:station:WAVCIS:CSI03:3,2015-10-05T16:00:00Z,29.4412,-92.0613,10.0,3.651,22.0,,'11111222,11111222,99999999' 
WAVCIS,ioos:station:WAVCIS:CSI03:3,2015-10-05T17:00:00Z,29.4412,-92.0613,10.0,3.68,8.0,,'11111222,11111222,99999999' 
WAVCIS,ioos:station:WAVCIS:CSI03:3,2015-10-05T18:00:00Z,29.4412,-92.0613,10.0,3.211,340.0,,'11111222,11111222,99999999' 
WAVCIS,ioos:station:WAVCIS:CSI03:3,2015-10-05T19:00:00Z,29.4412,-92.0613,10.0,1.312,338.0,,'11111222,11111222,99999999' 
WAVCIS,ioos:station:WAVCIS:CSI03:3,2015-10-05T20:00:00Z,29.4412,-92.0613,10.0,3.818,276.0,,'11111222,11111222,99999999' 
WAVCIS,ioos:station:WAVCIS:CSI03:3,2015-10-05T21:00:00Z,29.4412,-92.0613,10.0,4.926,272.0,,'11111222,11111222,99999999' 
WAVCIS,ioos:station:WAVCIS:CSI03:3,2015-10-05T22:00:00Z,29.4412,-92.0613,10.0,5.863,285.0,,'11111222,11111222,99999999' 
WAVCIS,ioos:station:WAVCIS:CSI03:3,2015-10-05T23:00:00Z,29.4412,-92.0613,10.0,5.489,284.0,,'11111222,11111222,99999999' 
WAVCIS,ioos:station:WAVCIS:CSI03:3,2015-10-06T00:00:00Z,29.4412,-92.0613,10.0,2.953,320.0,,'11111222,11111222,99999999' 
WAVCIS,ioos:station:WAVCIS:CSI03:3,2015-10-06T01:00:00Z,29.4412,-92.0613,10.0,3.095,323.0,,'11111222,11111222,99999999' 
WAVCIS,ioos:station:WAVCIS:CSI03:3,2015-10-06T02:00:00Z,29.4412,-92.0613,10.0,2.84,331.0,,'11111222,11111222,99999999' 
WAVCIS,ioos:station:WAVCIS:CSI03:3,2015-10-06T03:00:00Z,29.4412,-92.0613,10.0,2.39,347.0,,'11111222,11111222,99999999' 
WAVCIS,ioos:station:WAVCIS:CSI03:3,2015-10-06T04:00:00Z,29.4412,-92.0613,10.0,2.749,338.0,,'11111222,11111222,99999999' 
WAVCIS,ioos:station:WAVCIS:CSI03:3,2015-10-06T05:00:00Z,29.4412,-92.0613,10.0,2.882,0.0,,'11111222,11111222,99999999' 
WAVCIS,ioos:station:WAVCIS:CSI03:3,2015-10-06T06:00:00Z,29.4412,-92.0613,10.0,3.517,18.0,,'11111222,11111222,99999999' 
WAVCIS,ioos:station:WAVCIS:CSI03:3,2015-10-06T07:00:00Z,29.4412,-92.0613,10.0,3.431,18.0,,'11111222,11111222,99999999' 
WAVCIS,ioos:station:WAVCIS:CSI03:3,2015-10-06T08:00:00Z,29.4412,-92.0613,10.0,2.704,31.0,,'11111222,11111222,99999999' 
WAVCIS,ioos:station:WAVCIS:CSI03:3,2015-10-06T09:00:00Z,29.4412,-92.0613,10.0,2.497,29.0,,'11111222,11111222,99999999' 
WAVCIS,ioos:station:WAVCIS:CSI03:3,2015-10-06T10:00:00Z,29.4412,-92.0613,10.0,3.305,11.0,,'11111222,11111222,99999999' 
WAVCIS,ioos:station:WAVCIS:CSI03:3,2015-10-06T11:00:00Z,29.4412,-92.0613,10.0,2.645,1.0,,'11111222,11111222,99999999' 
WAVCIS,ioos:station:WAVCIS:CSI03:3,2015-10-06T12:00:00Z,29.4412,-92.0613,10.0,2.703,2.0,,'11111222,11111222,99999999' 
WAVCIS,ioos:station:WAVCIS:CSI03:3,2015-10-06T13:00:00Z,29.4412,-92.0613,10.0,3.292,2.0,,'11111222,11111222,99999999' 
WAVCIS,ioos:station:WAVCIS:CSI03:3,2015-10-06T14:00:00Z,29.4412,-92.0613,10.0,3.575,8.0,,'11111222,11111222,99999999' 
WAVCIS,ioos:station:WAVCIS:CSI03:3,2015-10-06T15:00:00Z,29.4412,-92.0613,10.0,3.166,20.0,,'11111222,11111222,99999999' 
WAVCIS,ioos:station:WAVCIS:CSI03:3,2015-10-06T16:00:00Z,29.4412,-92.0613,10.0,3.269,6.0,,'11111222,11111222,99999999' 
WAVCIS,ioos:station:WAVCIS:CSI03:3,2015-10-06T17:00:00Z,29.4412,-92.0613,10.0,2.105,3.0,,'11111222,11111222,99999999' 
WAVCIS,ioos:station:WAVCIS:CSI03:3,2015-10-06T18:00:00Z,29.4412,-92.0613,10.0,1.969,356.0,,'11111222,11111222,99999999' 
WAVCIS,ioos:station:WAVCIS:CSI03:3,2015-10-06T19:00:00Z,29.4412,-92.0613,10.0,1.935,17.0,,'11111222,11111222,99999999' 
WAVCIS,ioos:station:WAVCIS:CSI03:3,2015-10-06T20:00:00Z,29.4412,-92.0613,10.0,1.514,17.0,,'11111222,11111222,99999999' 
WAVCIS,ioos:station:WAVCIS:CSI03:3,2015-10-06T21:00:00Z,29.4412,-92.0613,10.0,4.682,282.0,,'11111222,11111222,99999999' 
WAVCIS,ioos:station:WAVCIS:CSI03:3,2015-10-06T22:00:00Z,29.4412,-92.0613,10.0,4.422,281.0,,'11111222,11111222,99999999' 
WAVCIS,ioos:station:WAVCIS:CSI03:3,2015-10-06T23:00:00Z,29.4412,-92.0613,10.0,5.446,285.0,,'11111222,11111222,99999999' 
WAVCIS,ioos:station:WAVCIS:CSI03:3,2015-10-07T00:00:00Z,29.4412,-92.0613,10.0,4.674,282.0,,'11111222,11111222,99999999' 
WAVCIS,ioos:station:WAVCIS:CSI03:3,2015-10-07T01:00:00Z,29.4412,-92.0613,10.0,2.362,301.0,,'11111222,11111222,99999999' 
WAVCIS,ioos:station:WAVCIS:CSI03:3,2015-10-07T02:00:00Z,29.4412,-92.0613,10.0,2.357,319.0,,'11111222,11111222,99999999' 
WAVCIS,ioos:station:WAVCIS:CSI03:3,2015-10-07T03:00:00Z,29.4412,-92.0613,10.0,4.106,320.0,,'11111222,11111222,99999999' 
WAVCIS,ioos:station:WAVCIS:CSI03:3,2015-10-07T04:00:00Z,29.4412,-92.0613,10.0,4.288,331.0,,'11111222,11111222,99999999' 
WAVCIS,ioos:station:WAVCIS:CSI03:3,2015-10-07T05:00:00Z,29.4412,-92.0613,10.0,4.296,328.0,,'11111222,11111222,99999999' 
WAVCIS,ioos:station:WAVCIS:CSI03:3,2015-10-07T06:00:00Z,29.4412,-92.0613,10.0,3.957,331.0,,'11111222,11111222,99999999' 
WAVCIS,ioos:station:WAVCIS:CSI03:3,2015-10-07T07:00:00Z,29.4412,-92.0613,10.0,3.494,340.0,,'11111222,11111222,99999999' 
WAVCIS,ioos:station:WAVCIS:CSI03:3,2015-10-07T08:00:00Z,29.4412,-92.0613,10.0,3.87,338.0,,'11111222,11111222,99999999' 
WAVCIS,ioos:station:WAVCIS:CSI03:3,2015-10-07T09:00:00Z,29.4412,-92.0613,10.0,3.139,351.0,,'11111222,11111222,99999999' 
WAVCIS,ioos:station:WAVCIS:CSI03:3,2015-10-07T10:00:00Z,29.4412,-92.0613,10.0,3.18,352.0,,'11111222,11111222,99999999' 
WAVCIS,ioos:station:WAVCIS:CSI03:3,2015-10-07T11:00:00Z,29.4412,-92.0613,10.0,3.136,359.0,,'11111222,11111222,99999999' 
WAVCIS,ioos:station:WAVCIS:CSI03:3,2015-10-07T12:00:00Z,29.4412,-92.0613,10.0,3.325,6.0,,'11111222,11111222,99999999' 
WAVCIS,ioos:station:WAVCIS:CSI03:3,2015-10-07T13:00:00Z,29.4412,-92.0613,10.0,3.162,27.0,,'11111222,11111222,99999999' 
WAVCIS,ioos:station:WAVCIS:CSI03:3,2015-10-07T14:00:00Z,29.4412,-92.0613,10.0,2.79,35.0,,'11111222,11111222,99999999' 
WAVCIS,ioos:station:WAVCIS:CSI03:3,2015-10-07T15:00:00Z,29.4412,-92.0613,10.0,2.668,45.0,,'11111222,11111222,99999999' 
WAVCIS,ioos:station:WAVCIS:CSI03:3,2015-10-07T16:00:00Z,29.4412,-92.0613,10.0,1.777,19.0,,'11111222,11111222,99999999' 
WAVCIS,ioos:station:WAVCIS:CSI03:3,2015-10-07T17:00:00Z,29.4412,-92.0613,10.0,1.393,0.0,,'11111222,11144222,99999999' 
WAVCIS,ioos:station:WAVCIS:CSI03:3,2015-10-07T18:00:00Z,29.4412,-92.0613,10.0,1.428,351.0,,'11111222,11111222,99999999' 
WAVCIS,ioos:station:WAVCIS:CSI03:3,2015-10-07T19:00:00Z,29.4412,-92.0613,10.0,1.921,3.0,,'11111222,11111222,99999999' 
WAVCIS,ioos:station:WAVCIS:CSI03:3,2015-10-07T20:00:00Z,29.4412,-92.0613,10.0,0.943,3.0,,'11111222,11111222,99999999' 
WAVCIS,ioos:station:WAVCIS:CSI03:3,2015-10-07T21:00:00Z,29.4412,-92.0613,10.0,0.979,68.0,,'11111222,11111222,99999999' 
WAVCIS,ioos:station:WAVCIS:CSI03:3,2015-10-07T22:00:00Z,29.4412,-92.0613,10.0,1.303,181.0,,'11111222,11111222,99999999' 
WAVCIS,ioos:station:WAVCIS:CSI03:3,2015-10-07T23:00:00Z,29.4412,-92.0613,10.0,2.816,258.0,,'11111222,11111222,99999999' 
WAVCIS,ioos:station:WAVCIS:CSI03:3,2015-10-08T00:00:00Z,29.4412,-92.0613,10.0,3.124,263.0,,'11111222,11111222,99999999' 
WAVCIS,ioos:station:WAVCIS:CSI03:3,2015-10-08T01:00:00Z,29.4412,-92.0613,10.0,2.476,265.0,,'11111222,11111222,99999999' 
WAVCIS,ioos:station:WAVCIS:CSI03:3,2015-10-08T02:00:00Z,29.4412,-92.0613,10.0,4.017,176.0,,'11111222,11111222,99999999' 
WAVCIS,ioos:station:WAVCIS:CSI03:3,2015-10-08T03:00:00Z,29.4412,-92.0613,10.0,1.643,190.0,,'11111222,11111222,99999999' 
WAVCIS,ioos:station:WAVCIS:CSI03:3,2015-10-08T04:00:00Z,29.4412,-92.0613,10.0,1.589,187.0,,'11111222,11111222,99999999' 
WAVCIS,ioos:station:WAVCIS:CSI03:3,2015-10-08T05:00:00Z,29.4412,-92.0613,10.0,1.583,196.0,,'11111222,11111222,99999999' 
WAVCIS,ioos:station:WAVCIS:CSI03:3,2015-10-08T06:00:00Z,29.4412,-92.0613,10.0,2.549,191.0,,'11111222,11111222,99999999' 
WAVCIS,ioos:station:WAVCIS:CSI03:3,2015-10-08T07:00:00Z,29.4412,-92.0613,10.0,0.908,183.0,,'11111222,11111222,99999999' 
WAVCIS,ioos:station:WAVCIS:CSI03:3,2015-10-08T08:00:00Z,29.4412,-92.0613,10.0,0.944,179.0,,'11111222,11111222,99999999' 
WAVCIS,ioos:station:WAVCIS:CSI03:3,2015-10-08T09:00:00Z,29.4412,-92.0613,10.0,0.615,169.0,,'11111222,11111222,99999999' 
WAVCIS,ioos:station:WAVCIS:CSI03:3,2015-10-08T10:00:00Z,29.4412,-92.0613,10.0,0.018,166.0,,'11111222,11111222,99999999' 
WAVCIS,ioos:station:WAVCIS:CSI03:3,2015-10-08T11:00:00Z,29.4412,-92.0613,10.0,0.239,122.0,,'11111222,11111222,99999999' 
WAVCIS,ioos:station:WAVCIS:CSI03:3,2015-10-08T12:00:00Z,29.4412,-92.0613,10.0,0.546,112.0,,'11111222,11111222,99999999' 
WAVCIS,ioos:station:WAVCIS:CSI03:3,2015-10-08T13:00:00Z,29.4412,-92.0613,10.0,2.4,58.0,,'11111222,11111222,99999999' 
WAVCIS,ioos:station:WAVCIS:CSI03:3,2015-10-08T14:00:00Z,29.4412,-92.0613,10.0,2.593,62.0,,'11111222,11111222,99999999' 
WAVCIS,ioos:station:WAVCIS:CSI03:3,2015-10-08T15:00:00Z,29.4412,-92.0613,10.0,2.629,75.0,,'11111222,11111222,99999999' 
WAVCIS,ioos:station:WAVCIS:CSI03:3,2015-10-08T16:00:00Z,29.4412,-92.0613,10.0,4.072,115.0,,'11111222,11111222,99999999' 
WAVCIS,ioos:station:WAVCIS:CSI03:3,2015-10-08T17:00:00Z,29.4412,-92.0613,10.0,4.074,112.0,,'11111222,11111222,99999999' 
WAVCIS,ioos:station:WAVCIS:CSI03:3,2015-10-08T18:00:00Z,29.4412,-92.0613,10.0,4.363,120.0,,'11111222,11111222,99999999' 
WAVCIS,ioos:station:WAVCIS:CSI03:3,2015-10-08T19:00:00Z,29.4412,-92.0613,10.0,4.703,126.0,,'11111222,11111222,99999999' 
WAVCIS,ioos:station:WAVCIS:CSI03:3,2015-10-08T20:00:00Z,29.4412,-92.0613,10.0,4.206,129.0,,'11111222,11111222,99999999' 
WAVCIS,ioos:station:WAVCIS:CSI03:3,2015-10-08T21:00:00Z,29.4412,-92.0613,10.0,3.88,139.0,,'11111222,11111222,99999999' 
WAVCIS,ioos:station:WAVCIS:CSI03:3,2015-10-08T22:00:00Z,29.4412,-92.0613,10.0,3.551,148.0,,'11111222,11111222,99999999' 
WAVCIS,ioos:station:WAVCIS:CSI03:3,2015-10-08T23:00:00Z,29.4412,-92.0613,10.0,4.733,150.0,,'11111222,11111222,99999999' 
WAVCIS,ioos:station:WAVCIS:CSI03:3,2015-10-09T00:00:00Z,29.4412,-92.0613,10.0,4.983,156.0,,'11111222,11111222,99999999' 
WAVCIS,ioos:station:WAVCIS:CSI03:3,2015-10-09T01:00:00Z,29.4412,-92.0613,10.0,4.733,155.0,,'11111222,11111222,99999999' 
WAVCIS,ioos:station:WAVCIS:CSI03:3,2015-10-09T02:00:00Z,29.4412,-92.0613,10.0,4.779,151.0,,'11111222,11111222,99999999' 
WAVCIS,ioos:station:WAVCIS:CSI03:3,2015-10-09T03:00:00Z,29.4412,-92.0613,10.0,4.566,153.0,,'11111222,11111222,99999999' 
WAVCIS,ioos:station:WAVCIS:CSI03:3,2015-10-09T04:00:00Z,29.4412,-92.0613,10.0,4.51,154.0,,'11111222,11111222,99999999' 
WAVCIS,ioos:station:WAVCIS:CSI03:3,2015-10-09T05:00:00Z,29.4412,-92.0613,10.0,5.04,152.0,,'11111222,11111222,99999999' 
WAVCIS,ioos:station:WAVCIS:CSI03:3,2015-10-09T06:00:00Z,29.4412,-92.0613,10.0,4.495,141.0,,'11111222,11111222,99999999' 